Zurück zum Katalog

SL-12 R/B(2)

AktivGEO
NORAD 38104·ROCKET BODY·🇷🇺 Russia

Gestartet Mar 30, 2012 von Baikonur Cosmodrome

Loading…

TLE

AktuellSource: Space-Track

Epoche: Sep 14, 2026, 21:52 UTC

1 38104U 12012D   26257.91116737 -.00000130  00000-0  00000-0 0  9994
2 38104   9.0421  55.6239 0011235 303.0676 220.1178  1.00387617 52967

Verfolge SL-12 R/B(2) in Echtzeit mit AllMySat

Download on the App Store